DW4719 Vilanova I la Geltru ES current weather conditions

sailwx.info

Wind from 272

Air temperature 15.0° C
Dewpoint 10.0° C

Last reported at 2015-Mar-30 00:51 UTC.
Time now 2015-Mar-30 01:07 UTC

Location: N 41°13' E 001°44'.
View on Google Maps.

See reports from other nearby stations

  
Tides and Currents Weather Stations Pressure Air Temp Water Temp Dewpoint Dewpoint Depression Visibility Wind Speed Wind Dir Waves Ship Positions
date/time (UTC)wind fromknots sea level pressurealtimeterstation pressurevisibilityair tempwater tempwave heightnotes
2015-Mar-30 00:51 272 15.0
2015-Mar-30 00:46 272 15.0
2015-Mar-30 00:41 272 15.0
2015-Mar-30 00:36 272 15.0
2015-Mar-30 00:31 272 15.0
2015-Mar-30 00:26 272 15.0
2015-Mar-30 00:21 272 15.0
2015-Mar-30 00:16 272 15.0
2015-Mar-30 00:11 271 15.6
2015-Mar-30 00:06 272 15.6
2015-Mar-30 00:01 272 15.6
2015-Mar-29 23:56 272 15.6
2015-Mar-29 23:51 272 15.0
2015-Mar-29 23:46 360 15.0
2015-Mar-29 23:41 051 15.6
2015-Mar-29 23:36 051 15.6
2015-Mar-29 23:31 051 15.6
2015-Mar-29 23:26 051 15.6
2015-Mar-29 23:21 051 15.6
2015-Mar-29 23:16 051 15.6
2015-Mar-29 23:11 051 15.6
2015-Mar-29 23:06 051 15.6
2015-Mar-29 23:01 051 15.6
2015-Mar-29 22:56 051 15.6
2015-Mar-29 22:51 051 15.6
2015-Mar-29 22:46 051 15.6
2015-Mar-29 22:41 051 15.6
2015-Mar-29 22:36 051 15.6
2015-Mar-29 22:31 051 15.6
2015-Mar-29 22:26 051 15.6
2015-Mar-29 22:21 051 15.6
2015-Mar-29 22:16 051 15.6
2015-Mar-29 22:11 051 15.6
2015-Mar-29 22:06 051 15.6
2015-Mar-29 22:01 051 15.6
2015-Mar-29 21:56 051 15.6
2015-Mar-29 21:51 051 15.6
2015-Mar-29 21:46 051 15.6
2015-Mar-29 21:41 256 15.6
2015-Mar-29 21:36 250 15.6
2015-Mar-29 21:30 250 15.6
2015-Mar-29 21:26 250 15.6
2015-Mar-29 21:21 250 15.6
2015-Mar-29 21:16 250 15.6
2015-Mar-29 21:11 250 15.6
2015-Mar-29 21:06 250 16.1
2015-Mar-29 21:01 250 15.6
2015-Mar-29 20:56 250 15.6
2015-Mar-29 20:51 250 16.1
2015-Mar-29 20:46 250 16.1
2015-Mar-29 20:41 250 16.1
2015-Mar-29 20:36 250 16.1
2015-Mar-29 20:31 250 16.1
2015-Mar-29 20:26 250 16.1
2015-Mar-29 20:21 250 16.1
2015-Mar-29 20:16 250 16.1
2015-Mar-29 20:11 250 16.1
2015-Mar-29 20:06 251 16.1
2015-Mar-29 20:01 250 16.7
2015-Mar-29 19:56 250 16.7
2015-Mar-29 19:51 251 16.7
2015-Mar-29 19:46 251 16.7
2015-Mar-29 19:41 250 16.7
2015-Mar-29 19:36 250 16.7
2015-Mar-29 19:31 251 16.1
2015-Mar-29 19:26 251 16.1
2015-Mar-29 19:21 222 15.6
2015-Mar-29 19:16 222 15.6
2015-Mar-29 19:11 155 15.6
2015-Mar-29 19:06 155 15.6
2015-Mar-29 19:01 155 15.6
2015-Mar-29 18:56 155 15.6
2015-Mar-29 18:51 154 15.6
2015-Mar-29 18:46 154 15.6
2015-Mar-29 18:41 155 15.6
2015-Mar-29 18:36 155 15.6
2015-Mar-29 18:31 155 15.6
2015-Mar-29 18:26 155 15.6
2015-Mar-29 18:21 151 16.1
2015-Mar-29 18:16 152 16.1
2015-Mar-29 18:11 158 16.1
2015-Mar-29 18:06 126 0 16.1
2015-Mar-29 18:01 119 1 16.7
2015-Mar-29 17:56 130 0 16.7
2015-Mar-29 17:51 104 16.7
2015-Mar-29 17:45 103 2 16.7
2015-Mar-29 17:41 100 2 16.7
2015-Mar-29 17:36 106 2 17.2
2015-Mar-29 17:31 131 1 17.8
2015-Mar-29 17:26 161 1 19.4
2015-Mar-29 17:21 112 1 21.1
2015-Mar-29 17:16 254 22.2
2015-Mar-29 17:11 257 22.2
2015-Mar-29 17:06 257 0 22.2
2015-Mar-29 17:01 248 22.2
2015-Mar-29 16:56 287 22.2
2015-Mar-29 16:51 287 22.2
2015-Mar-29 16:46 287 22.2
2015-Mar-29 16:41 265 0 22.2
2015-Mar-29 16:36 265 1 22.2
2015-Mar-29 16:31 267 3 22.2
2015-Mar-29 16:26 272 4 22.2
2015-Mar-29 16:21 274 1 22.2
2015-Mar-29 16:16 271 1 22.8
2015-Mar-29 16:11 247 2 22.2
2015-Mar-29 16:06 277 2 22.2
2015-Mar-29 16:01 253 3 22.2
2015-Mar-29 15:56 257 3 22.2
2015-Mar-29 15:51 319 5 22.2
2015-Mar-29 15:46 267 6 22.2
2015-Mar-29 15:41 264 5 22.2
2015-Mar-29 15:36 284 4 22.2
2015-Mar-29 15:31 272 5 22.2
2015-Mar-29 15:26 243 6 22.2
2015-Mar-29 15:21 267 3 21.7
2015-Mar-29 15:16 260 20.0
2015-Mar-29 15:11 191 0 19.4
2015-Mar-29 15:06 191 0 19.4
2015-Mar-29 15:01 213 1 20.0
2015-Mar-29 14:55 229 2 20.0
2015-Mar-29 14:51 236 2 20.0
2015-Mar-29 14:46 230 2 20.6
2015-Mar-29 14:41 217 3 20.6
2015-Mar-29 14:36 239 3 21.1
2015-Mar-29 14:31 237 3 20.6
2015-Mar-29 14:26 256 6 20.6
2015-Mar-29 14:21 234 6 20.6
2015-Mar-29 14:16 237 7 21.1
2015-Mar-29 14:11 253 6 21.1
2015-Mar-29 14:06 267 3 21.1
2015-Mar-29 14:01 199 4 20.0
2015-Mar-29 13:56 169 4 19.4
2015-Mar-29 13:51 213 3 18.9
2015-Mar-29 13:46 257 3 18.9
2015-Mar-29 13:40 219 3 18.9
2015-Mar-29 13:35 203 3 18.9
2015-Mar-29 13:31 219 2 18.9
2015-Mar-29 13:25 192 2 20.0
2015-Mar-29 13:20 178 4 20.0
2015-Mar-29 13:16 212 4 20.0
2015-Mar-29 13:10 202 6 20.6
2015-Mar-29 13:06 263 6 21.1
2015-Mar-29 13:01 264 6 21.1
2015-Mar-29 12:56 285 4 21.7
2015-Mar-29 12:51 282 3 21.7
2015-Mar-29 12:46 274 4 21.7
2015-Mar-29 12:41 311 3 21.1
2015-Mar-29 12:36 253 3 21.1
2015-Mar-29 12:31 271 3 21.1
2015-Mar-29 12:26 020 3 21.1
2015-Mar-29 12:21 248 4 21.1
2015-Mar-29 12:16 267 3 21.1
2015-Mar-29 12:11 251 1 20.6
2015-Mar-29 12:06 313 0 19.4
2015-Mar-29 12:01 010 17.8
2015-Mar-29 11:56 130 0 17.2
2015-Mar-29 11:51 133 2 16.7
2015-Mar-29 11:46 131 3 16.1
2015-Mar-29 11:41 161 4 16.1
2015-Mar-29 11:36 121 3 16.1
2015-Mar-29 11:31 124 2 16.7
2015-Mar-29 11:26 099 1 16.7
2015-Mar-29 11:21 145 0 16.7
2015-Mar-29 11:16 174 0 16.7
2015-Mar-29 11:11 178 1 16.7
2015-Mar-29 11:06 181 1 17.2
2015-Mar-29 11:01 182 0 17.2
2015-Mar-29 10:56 198 0 17.2
2015-Mar-29 10:51 182 2 17.2
2015-Mar-29 10:46 168 2 17.2
2015-Mar-29 10:41 206 1 17.2
2015-Mar-29 10:36 179 2 17.2
2015-Mar-29 10:31 179 1 17.8
2015-Mar-29 10:26 192 1 17.8
2015-Mar-29 10:21 175 0 17.8
2015-Mar-29 10:16 208 0 17.8
2015-Mar-29 10:11 223 0 17.8
2015-Mar-29 10:06 243 0 17.8
2015-Mar-29 10:01 217 0 17.2
2015-Mar-29 09:56 226 17.2
2015-Mar-29 09:51 224 17.2
2015-Mar-29 09:46 224 16.7
2015-Mar-29 09:41 223 16.7
2015-Mar-29 09:36 216 16.1
2015-Mar-29 09:31 205 16.7
2015-Mar-29 09:26 206 16.1
2015-Mar-29 09:21 186 16.1
2015-Mar-29 09:16 141 16.1
2015-Mar-29 09:11 138 16.1
2015-Mar-29 09:06 138 0 16.1
2015-Mar-29 09:00 138 0 16.1
2015-Mar-29 08:56 119 16.7
2015-Mar-29 08:51 088 16.7
2015-Mar-29 08:46 086 16.7
2015-Mar-29 08:41 078 16.7
2015-Mar-29 08:36 052 17.2
2015-Mar-29 08:31 052 16.7
2015-Mar-29 08:26 052 16.7
2015-Mar-29 08:21 052 16.7
2015-Mar-29 08:16 044 16.1
2015-Mar-29 08:11 044 15.6
2015-Mar-29 08:06 044 15.6
2015-Mar-29 08:01 044 15.6
2015-Mar-29 07:56 045 15.6
2015-Mar-29 07:51 044 15.6
2015-Mar-29 07:46 045 15.0
2015-Mar-29 07:41 044 15.0
2015-Mar-29 07:36 047 15.0
2015-Mar-29 07:31 047 15.0
2015-Mar-29 07:26 047 14.4
2015-Mar-29 07:21 047 14.4
2015-Mar-29 07:16 047 13.9
2015-Mar-29 07:11 047 13.3
2015-Mar-29 07:06 047 12.8
2015-Mar-29 07:01 047 12.8
2015-Mar-29 06:56 047 12.8
2015-Mar-29 06:51 047 12.8
2015-Mar-29 06:46 047 12.2
2015-Mar-29 06:41 047 12.2
2015-Mar-29 06:36 047 12.2
2015-Mar-29 06:31 047 12.2
2015-Mar-29 06:26 047 12.2
2015-Mar-29 06:21 047 12.2
2015-Mar-29 06:16 047 11.7
2015-Mar-29 06:11 047 11.7
2015-Mar-29 06:06 047 11.7
2015-Mar-29 06:01 047 11.7
2015-Mar-29 05:56 047 11.7
2015-Mar-29 05:51 047 11.7
2015-Mar-29 05:46 047 11.7
2015-Mar-29 05:41 047 11.7
2015-Mar-29 05:36 047 11.7
2015-Mar-29 05:31 047 11.7
2015-Mar-29 05:26 047 11.7
2015-Mar-29 05:21 047 11.7
2015-Mar-29 05:16 047 11.7
2015-Mar-29 05:11 047 11.7
2015-Mar-29 05:06 049 11.7
2015-Mar-29 05:01 051 11.7
2015-Mar-29 04:56 051 11.7
2015-Mar-29 04:51 051 11.7
2015-Mar-29 04:46 051 11.7
2015-Mar-29 04:41 052 12.2
2015-Mar-29 04:36 052 12.2
2015-Mar-29 04:31 052 12.2
2015-Mar-29 04:26 052 12.2
2015-Mar-29 04:20 052 12.2
2015-Mar-29 04:16 052 12.2
2015-Mar-29 04:11 052 12.2
2015-Mar-29 04:06 052 12.2
2015-Mar-29 04:00 052 12.2
2015-Mar-29 03:56 052 12.2
2015-Mar-29 03:51 052 12.8
2015-Mar-29 03:46 052 12.8
2015-Mar-29 03:41 052 12.8
2015-Mar-29 03:36 052 12.8
2015-Mar-29 03:31 052 12.8
2015-Mar-29 03:26 052 12.8
2015-Mar-29 03:21 052 12.8
2015-Mar-29 03:16 052 12.2
2015-Mar-29 03:10 054 12.2
2015-Mar-29 03:06 054 12.2
2015-Mar-29 03:01 054 11.7
2015-Mar-29 02:56 054 11.7
2015-Mar-29 02:51 054 11.7
2015-Mar-29 02:46 054 11.7
2015-Mar-29 02:41 054 11.7
2015-Mar-29 02:36 054 11.7
2015-Mar-29 02:31 054 11.7
2015-Mar-29 02:26 054 12.2
2015-Mar-29 02:21 054 12.2
2015-Mar-29 02:16 054 12.2
2015-Mar-29 02:11 054 12.2
2015-Mar-29 02:06 054 12.2
2015-Mar-29 02:01 054 12.2
2015-Mar-29 01:56 054 12.2
2015-Mar-29 01:51 054 12.2
2015-Mar-29 01:46 054 12.8
2015-Mar-29 01:41 054 12.8
2015-Mar-29 01:36 054 12.8
2015-Mar-29 01:31 054 12.8
2015-Mar-29 01:26 054 12.8
2015-Mar-29 01:21 054 12.8
2015-Mar-29 01:16 054 12.8
2015-Mar-29 01:11 054 12.8
2015-Mar-29 01:06 054 12.8
2015-Mar-29 01:00 054 12.8
2015-Mar-29 00:56 054 12.8
2015-Mar-29 00:51 054 12.8
2015-Mar-29 00:46 054 12.8
2015-Mar-29 00:41 054 12.8
2015-Mar-29 00:36 054 12.8
2015-Mar-29 00:31 054 12.2
2015-Mar-29 00:26 054 12.8
2015-Mar-29 00:21 054 12.8
2015-Mar-29 00:16 054 12.8
2015-Mar-29 00:11 054 12.8
2015-Mar-29 00:06 054 12.8
2015-Mar-29 00:01 054 12.8
2015-Mar-28 23:56 054 12.8
2015-Mar-28 23:51 054 12.8
2015-Mar-28 23:46 078 12.8
2015-Mar-28 23:41 078 12.8
2015-Mar-28 23:36 078 12.8
2015-Mar-28 23:31 078 12.8
2015-Mar-28 23:26 078 12.8
2015-Mar-28 23:21 079 12.8
2015-Mar-28 23:16 079 12.8
2015-Mar-28 23:11 079 12.8
2015-Mar-28 23:06 079 12.8
2015-Mar-28 23:01 079 12.8
2015-Mar-28 22:56 079 12.8
2015-Mar-28 22:51 079 12.8
2015-Mar-28 22:46 079 12.8
2015-Mar-28 22:41 089 12.8
2015-Mar-28 22:36 092 13.3
2015-Mar-28 22:31 092 13.3
2015-Mar-28 22:26 092 13.9
2015-Mar-28 22:21 092 13.9
2015-Mar-28 22:16 092 13.9
2015-Mar-28 22:11 092 13.9
2015-Mar-28 22:06 092 14.4
2015-Mar-28 22:01 093 14.4
2015-Mar-28 21:56 092 14.4
2015-Mar-28 21:51 092 14.4
2015-Mar-28 21:46 092 14.4
2015-Mar-28 21:41 092 14.4
2015-Mar-28 21:36 092 14.4
2015-Mar-28 21:31 092 14.4
2015-Mar-28 21:26 092 15.0
2015-Mar-28 21:21 092 15.0
2015-Mar-28 21:16 093 15.0
2015-Mar-28 21:11 093 15.0
2015-Mar-28 21:06 093 15.0
2015-Mar-28 21:01 093 15.0
2015-Mar-28 20:56 092 15.0
2015-Mar-28 20:51 089 15.0
2015-Mar-28 20:46 089 15.0
2015-Mar-28 20:41 089 15.0
2015-Mar-28 20:36 089 15.0
2015-Mar-28 20:31 089 15.0
2015-Mar-28 20:26 104 15.0
2015-Mar-28 20:21 104 15.0
2015-Mar-28 20:16 104 15.0
2015-Mar-28 20:11 106 15.0
2015-Mar-28 20:06 106 15.6
2015-Mar-28 20:01 106 15.6
2015-Mar-28 19:56 161 15.6
2015-Mar-28 19:51 160 15.6
2015-Mar-28 19:46 141 15.6
2015-Mar-28 19:41 138 15.6
2015-Mar-28 19:36 140 15.6
2015-Mar-28 19:31 136 15.6
2015-Mar-28 19:26 128 15.6
2015-Mar-28 19:21 130 15.6
2015-Mar-28 19:16 130 15.6
2015-Mar-28 19:11 131 15.6
2015-Mar-28 19:06 131 15.6
2015-Mar-28 19:01 131 15.6
2015-Mar-28 18:56 131 15.6
2015-Mar-28 18:51 131 15.6
2015-Mar-28 18:46 131 15.6
2015-Mar-28 18:41 131 15.6
2015-Mar-28 18:36 131 16.1
2015-Mar-28 18:31 131 16.1
2015-Mar-28 18:26 131 16.1
2015-Mar-28 18:21 131 16.1
2015-Mar-28 18:16 131 16.1
2015-Mar-28 18:11 131 16.1
2015-Mar-28 18:06 131 16.1
2015-Mar-28 18:01 131 16.7
2015-Mar-28 17:56 131 16.7
2015-Mar-28 17:51 131 16.7
2015-Mar-28 17:45 131 16.7
2015-Mar-28 17:41 131 16.7
2015-Mar-28 17:36 130 16.7
2015-Mar-28 17:31 134 17.2
2015-Mar-28 17:26 133 17.2
2015-Mar-28 17:21 133 0 17.2
2015-Mar-28 17:16 134 0 17.2
2015-Mar-28 17:11 160 18.3
2015-Mar-28 17:06 134 18.3
2015-Mar-28 17:01 134 17.8
2015-Mar-28 16:56 134 17.8
2015-Mar-28 16:51 133 18.3
2015-Mar-28 16:46 107 18.3
2015-Mar-28 16:41 128 18.3
2015-Mar-28 16:36 128 18.3
2015-Mar-28 16:31 157 18.3
2015-Mar-28 16:26 157 18.3
2015-Mar-28 16:21 154 18.3
2015-Mar-28 16:16 165 18.3
2015-Mar-28 16:11 165 17.8
2015-Mar-28 16:06 171 17.8
2015-Mar-28 16:01 138 17.2
2015-Mar-28 15:56 134 17.2
2015-Mar-28 15:51 134 1 17.2
2015-Mar-28 15:46 137 3 17.2
2015-Mar-28 15:41 119 1 17.2
2015-Mar-28 15:36 145 0 17.2
2015-Mar-28 15:31 152 0 17.2
2015-Mar-28 15:26 130 0 17.2
2015-Mar-28 15:21 120 1 17.2
2015-Mar-28 15:16 121 1 17.2
2015-Mar-28 15:11 119 1 17.2
2015-Mar-28 15:06 093 1 17.2
2015-Mar-28 15:01 102 1 17.2
2015-Mar-28 14:56 086 3 17.2
2015-Mar-28 14:51 086 4 17.2
2015-Mar-28 14:46 112 4 17.2
2015-Mar-28 14:41 083 4 17.2
2015-Mar-28 14:36 114 4 17.8
2015-Mar-28 14:31 123 4 17.2
2015-Mar-28 14:25 107 4 17.2
2015-Mar-28 14:21 165 2 17.8
2015-Mar-28 14:16 164 3 17.8
2015-Mar-28 14:11 110 5 17.2
2015-Mar-28 14:06 131 5 17.2
2015-Mar-28 14:01 076 4 17.8
2015-Mar-28 13:56 113 3 17.8
2015-Mar-28 13:51 102 2 18.3
2015-Mar-28 13:46 148 0 18.3
2015-Mar-28 13:41 120 0 18.3
2015-Mar-28 13:36 120 1 17.8
2015-Mar-28 13:31 112 1 17.8
2015-Mar-28 13:26 143 17.8
2015-Mar-28 13:21 123 0 17.8
2015-Mar-28 13:15 100 3 17.8
2015-Mar-28 13:10 092 5 17.2
2015-Mar-28 13:06 157 3 17.8
2015-Mar-28 13:01 126 1 17.8
2015-Mar-28 12:56 133 0 17.8
2015-Mar-28 12:51 124 0 17.8
2015-Mar-28 12:46 100 0 17.2
2015-Mar-28 12:41 137 0 17.2
2015-Mar-28 12:36 141 17.8
2015-Mar-28 12:30 140 2 17.2
2015-Mar-28 12:26 099 3 17.2
2015-Mar-28 12:21 127 2 17.2
2015-Mar-28 12:16 124 3 17.2
2015-Mar-28 12:11 107 6 17.2
2015-Mar-28 12:06 126 6 17.8
2015-Mar-28 12:01 143 5 17.8
2015-Mar-28 11:56 095 4 17.8
2015-Mar-28 11:51 121 3 18.3
2015-Mar-28 11:46 131 3 18.3
2015-Mar-28 11:41 123 4 18.3
2015-Mar-28 11:36 136 3 18.3
2015-Mar-28 11:30 102 2 18.3
2015-Mar-28 11:26 133 2 17.8
2015-Mar-28 11:21 145 1 17.2
2015-Mar-28 11:16 119 2 17.2
2015-Mar-28 11:11 119 5 17.2
2015-Mar-28 11:05 128 4 17.2
2015-Mar-28 11:01 119 3 17.2
2015-Mar-28 10:56 160 4 17.2
2015-Mar-28 10:51 151 4 17.2
2015-Mar-28 10:40 188 1 18.3
2015-Mar-28 10:36 143 0 18.3
2015-Mar-28 10:31 160 0 18.3
2015-Mar-28 10:26 184 1 18.3
2015-Mar-28 10:21 208 0 18.3
2015-Mar-28 10:16 154 18.3
2015-Mar-28 10:11 150 1 18.3
2015-Mar-28 10:06 145 2 17.8
2015-Mar-28 10:01 117 2 18.3
2015-Mar-28 09:56 152 1 18.3
2015-Mar-28 09:51 154 18.9
2015-Mar-28 09:46 181 18.3
2015-Mar-28 09:41 181 0 18.3
2015-Mar-28 09:36 181 1 18.3
2015-Mar-28 09:31 179 0 18.9
2015-Mar-28 09:26 299 0 20.0
2015-Mar-28 09:21 184 0 20.0
2015-Mar-28 09:16 256 20.0
2015-Mar-28 09:11 360 18.9
2015-Mar-28 09:06 285 18.3
2015-Mar-28 09:00 260 17.8
2015-Mar-28 08:56 260 0 17.8
2015-Mar-28 08:51 260 0 17.8
2015-Mar-28 08:46 260 17.8
2015-Mar-28 08:41 260 18.3
2015-Mar-28 08:36 260 17.8
2015-Mar-28 08:31 260 17.8
2015-Mar-28 08:26 260 17.8
2015-Mar-28 08:21 260 17.8
2015-Mar-28 08:16 261 17.2
2015-Mar-28 08:11 261 17.8
2015-Mar-28 08:06 258 17.8
2015-Mar-28 08:01 260 17.2
2015-Mar-28 07:56 260 17.2
2015-Mar-28 07:51 260 16.7
2015-Mar-28 07:46 260 16.7
2015-Mar-28 07:41 257 16.7
2015-Mar-28 07:36 257 16.7
2015-Mar-28 07:31 261 16.1
2015-Mar-28 07:26 251 16.1
2015-Mar-28 07:20 247 15.6
2015-Mar-28 07:16 205 15.6
2015-Mar-28 07:11 056 15.0
2015-Mar-28 07:06 058 15.0
2015-Mar-28 07:01 058 14.4
2015-Mar-28 06:56 058 14.4
2015-Mar-28 06:51 058 14.4
2015-Mar-28 06:45 058 14.4
2015-Mar-28 06:41 058 14.4
2015-Mar-28 06:36 056 14.4
2015-Mar-28 06:31 058 13.9
2015-Mar-28 06:26 056 13.9
2015-Mar-28 06:21 056 13.9
2015-Mar-28 06:16 056 13.9
2015-Mar-28 06:10 058 14.4
2015-Mar-28 06:06 056 14.4
2015-Mar-28 06:00 056 13.9
2015-Mar-28 05:55 058 13.9
2015-Mar-28 05:51 059 13.9
2015-Mar-28 05:46 059 13.9
2015-Mar-28 05:41 032 13.9
2015-Mar-28 05:36 032 13.9
2015-Mar-28 05:31 032 13.9
2015-Mar-28 05:26 032 13.3
2015-Mar-28 05:21 032 13.9
2015-Mar-28 05:16 032 13.9
2015-Mar-28 05:11 032 13.9
2015-Mar-28 05:06 032 13.3
2015-Mar-28 05:01 030 13.3
2015-Mar-28 04:56 025 12.2
2015-Mar-28 04:51 025 12.2
2015-Mar-28 04:45 025 11.7
2015-Mar-28 04:40 025 11.7
2015-Mar-28 04:36 025 11.7
2015-Mar-28 04:31 025 11.7
2015-Mar-28 04:26 025 11.7
2015-Mar-28 04:21 025 11.7
2015-Mar-28 04:16 025 11.7
2015-Mar-28 04:11 025 11.7
2015-Mar-28 04:06 025 11.7
2015-Mar-28 04:01 025 11.7
2015-Mar-28 03:56 025 11.7
2015-Mar-28 03:51 025 11.7
2015-Mar-28 03:46 025 11.7
2015-Mar-28 03:41 025 11.7
2015-Mar-28 03:36 025 11.7
2015-Mar-28 03:31 025 11.7
2015-Mar-28 03:26 025 11.7
2015-Mar-28 03:21 025 11.7
2015-Mar-28 03:16 021 11.7
2015-Mar-28 03:11 008 11.7
2015-Mar-28 03:06 008 11.7
2015-Mar-28 03:01 008 11.7
2015-Mar-28 02:56 020 11.7
2015-Mar-28 02:51 021 12.2
2015-Mar-28 02:46 021 11.7
2015-Mar-28 02:41 021 11.7
2015-Mar-28 02:36 030 11.7
2015-Mar-28 02:31 030 11.7
2015-Mar-28 02:26 030 11.7
2015-Mar-28 02:20 025 11.7
2015-Mar-28 02:15 025 11.7
2015-Mar-28 02:11 047 11.7
2015-Mar-28 02:06 061 11.7
2015-Mar-28 02:00 061 11.7
2015-Mar-28 01:56 061 11.7
2015-Mar-28 01:51 061 11.7
2015-Mar-28 01:46 061 11.7
2015-Mar-28 01:41 061 11.7
2015-Mar-28 01:36 061 11.7
2015-Mar-28 01:31 061 11.7
2015-Mar-28 01:26 061 11.7
2015-Mar-28 01:21 061 11.7
2015-Mar-28 01:16 062 11.7
2015-Mar-28 01:10 061 11.7
2015-Mar-28 01:06 062 11.7
2015-Mar-28 01:00 059 11.7